Погода в Симферополе

Погода в Симферополе : погода сейчас, прогноз погоды и архив. Всё, что Вы хотите узнать о погоде в Симферополе!

Хотите узнать прогноз погоды в Симферополе? Тогда Вам сюда: Погода в Симферополе

Поиск расширенной информации на нашем сайте:

Другие новости

Новости СМИ2

Главная страница сайта

Новости сайта

03.07.2017

Напоминаем, что на нашем специализированном сайте Метеоцентр.Азия вы можете получить высокодетализированные автоматические прогнозы погоды по пунктам России, СНГ и мира в авиационном формате (включающие направление и скорость ветра, видимость, явления погоды, количество и форму облачности, нижнюю и верхнюю границу облачности).


Погода в Симферополе - сегодня

Время (UTC), дата Ветер
(°,м/с) 
Видим.   Явления Облачность Т
(°С)
Тd
(°С)
f(%) Тe
(°С)
Pmin
(гПа)
dP
(гПа)
Po
(мм)
O2
(г/м3)
Тmin Tmax R s Состояние
почвы
12 18.10.17 260 (З) 10 км  {туман}  ясно 
+20.6 +12.6 60 +25  1021.5  -1.2  750  279           
15 18.10.17 240 (ЮЗ) 10 км    ясно 
+15.7 +12.6 82 +21  1021.6  -0.3  750  283           
18 18.10.17 190 (Ю) 0100 м  туман  ?/?  
+13.8 +13.6 99 +20  1021.8  0.1  750  285    +20.9       
21 18.10.17 тихо ()   0100 м  туман  ?/?  
+12.5 +12.5 100 +17  1021.4  -0.5  750  286           
00 19.10.17 160 (Ю) 0100 м  туман  ?/?  
+12.1 +12.1 100 +17  1021.2  -0.3  750  287           
03 19.10.17 070 (В) 0100 м  туман  ?/?  
+11.4 +11.4 100 +16  1020.9  -0.3  749  288  +11.1    0.5     
06 19.10.17 180 (Ю) 3900 м  дымка{туман}  10/10 200 м 
[St]
+13 +13 100 +18  1021  0.2  749  286  +10.2    0.5     
09 19.10.17 260 (З) 10 км    6/6 420 м 
[St]
+16.8 +13.3 80 +24  1020.5  -0.2  749  282           
12 19.10.17 290 (З) 10 км    ясно 
+19.1 +12.8 67 +25  1019.4  -0.9  749  279           
15 19.10.17 260 (З) 10 км    ясно 
+14.7 +13.1 90 +21  1019.3  -0.4  748  284           
18 19.10.17 220 (ЮЗ) 3100 м  дымка  10/10 100 м 
[St]
+13.3 +13 98 +19  1019.4  748  285    +19.7       
21 19.10.17 180 (Ю) 4800 м  дымка  10/10 150 м 
[St]
+13.8 +13.3 97 +21  1019.2  -0.2  748  284           
00 20.10.17 160 (Ю) 0400 м  туман  ?/?  
+12.7 +12.7 100 +18  1019.1  -0.2  748  285           
03 20.10.17 110 (В) 2700 м  дымка{туман}  10/10 100 м 
[St]
+12.1 +11.8 98 +16  1018.7  -0.4  748  286  +12         
06 20.10.17 270 (З) 6000 м  дымка{туман}  10/10 100 м 
[St]
+12.7 +11.6 93 +17  1019.3  0.6  748  286  +11.8         
09 20.10.17 160 (Ю) 10 км    10/10 270 м 
[St]
+13.6 +11.7 88 +18  1019.5  0.3  748  285           
12 20.10.17 240 (ЮЗ) 10 км    10/0 верхняя 
[Ci fib]
+17.9 +11.7 67 +22  1018.2  -1  748  281           
15 20.10.17 300 (СЗ) 10 км    10/3 420 м верхняя 
[St|Ci fib]
+13.9 +11.9 88 +18  1018.9  0.4  748  284           
18 20.10.17 тихо ()   10 км    8/0 верхняя 
[Ci fib]
+12.1 +11.5 96 +15  1019.1  0.1  748  286    +18.3       
21 20.10.17 080 (В) 5000 м  дымка  10/10 400 м 
[St]
+12.6 +11.8 95 +17  1018.8  -0.3  748  286           
00 21.10.17 070 (В) 6000 м  дымка  10/10 450 м 
[St]
+12.7 +11.4 92 +17  1018.6  -0.2  748  286           
03 21.10.17 130 (ЮВ) 6000 м  дымка  10/10 600 м 
[Sc]
+12 +11.1 94 +15  1017.9  -0.7  747  286  +11.4         
06 21.10.17 120 (ЮВ) 6000 м  дымка  10/10 600 м 
[Sc]
+12.3 +10.5 89 +16  1018.3  0.4  747  286  +11.1         
09 21.10.17 060 (СВ) 10 км    8/8 800 м 
[Sc]
+15.5 +9.4 67 +16  1017.3  -0.7  747  283           
12 21.10.17 290 (З) 10 км    8/8 1140 м 
[Sc]
+16.6 +9.1 61 +17  1015.8  -1.4  746  282           
Время (UTC), дата Ветер
(°,м/с) 
Видим.   Явления Облачность Т
(°С)
Тd
(°С)
f(%) Тe
(°С)
Pmin
(гПа)
dP
(гПа)
Po
(мм)
O2
(г/м3)
Тmin Tmax R s Состояние
почвы

Для получения пояснительной информации подведите курсор к названию столбца.

ПОГОДА в Симферополе - архив

Всё, что Вы хотите узнать о погоде в Симферополе - удобно и подробно!

Выберите нужную дату (начиная с 1 января 2015* года) и нажмите кнопку "Найти".
Будут отображены архивные сводки погоды по пункту Симферополь, начиная с указанной даты.


Отображать данные в формате CSV (для использования в таблицах Excel)


Внимание! Наш архив погоды предназначен исключительно для личного некоммерческого использования в познавательных целях. Если Вам необходимы официальные справки о состоянии погоды (для производственных, юридических, коммерческих и т.п. целей), обращайтесь в органы Росгидромета.

*Примечание: данная дата относится к архиву по метеостанциям СССР (Россия, СНГ, Балтия).
Архив по метеостанциям Зарубежной Европы и Азии (кроме Китая) хранится 10 дней, по другим регионам земного шара (Китай, Африка, Америка, Австралия, Океания) - 1 день.

Симферополь - район местоположения метеостанции


Название, широта, долгота, высота метеостанции:
Симферополь 44.7°ш. 34.1°д. 181 м над ур. моря [Российская Федерация]

Дополнительная информация

В oтличие oт бoльшинства пoгoдных сайтoв мы публикуем пoдрoбную метеoинфoрмацию в детальнoм прoфессиoнальнoм фoрмате.

Характеристики температуры и влажнoсти вoздуха измеряются на высoте 2 м в тени вдали oт зданий и деревьев.
Скoрoсть ветра измеряется на высoте 10 м (на урoвне рoста челoвека скoрoсть ветра ниже в 1.5-2 раза). Если метеoстанция нахoдится в гoрoде или в лесу, тo скoрoсть ветра занижена на 2-4 м/с пo сравнению с oткрытым местoм. Скoрoсть ветра над акватoриями крупных рек и oзёр, а также на вершинах хoлмoв на 2-5 м/с выше, чем в oбычных услoвиях.
Атмoсфернoе давление в разных тoчках местнoсти мoжет значительнo oтличаться oт давления на метеoстанции, в зависимoсти oт услoвий рельефа (при пoдъёме на 10 м давление пoнижается примернo на 1 мм рт.ст.).